www.pogodaiklimat.ru

АРХИВ ПОГОДЫ в Атланте

Время (UTC), дата Ветер
(напр.,м/с)
 
Видим.   Явления Облачность Т
(С)
Тd
(С)
f
(%)
Тe
(С)
Тes
(С)
Комфортность

P
(гПа)

Po
(гПа)
Тmin
(С)
Tmax
(С)
R
(мм)
SD
(см)
02:52 21.05   16 км    ясно  +23.9  +16.1  62  +27  +27  жарко  1014.5  978.3         
03:52 21.05 З  16 км    2/0 7500 м
[верхняя] 
+23.3  +16.1  64  +28  +28  душно  1014.1  978.0         
04:52 21.05 СЗ  16 км    2/0 7500 м
[верхняя] 
+22.8  +16.1  66  +27  +27  душно  1013.8  977.7  +22.2  +28.3     
05:52 21.05 З  16 км    2/0 7500 м
[верхняя] 
+21.1  +16.1  73  +24  +24  комфорт  1013.7  977.7         
06:52 21.05   16 км    2/0 7500 м
[верхняя] 
+21.1  +16.7  76  +25  +25  комфорт  1013.3  977.3         
07:52 21.05   16 км    2/0 7500 м
[верхняя] 
+20.6  +16.1  75  +23  +23  комфорт  1013.6  977.3         
08:52 21.05   16 км    2/0 7500 м
[верхняя] 
+20.6  +16.1  75  +23  +23  комфорт  1013.8  977.7         
09:52 21.05   16 км    2/0 7500 м
[верхняя] 
+20.6  +16.1  75  +23  +23  комфорт  1014.0  978.0         
10:52 21.05   16 км    2/0 7500 м
[верхняя] 
+22.2  +17.2  73  +27  +27  душно  1014.6  978.3  +20.0  +22.8     
11:52 21.05   16 км    2/0 7500 м
[верхняя] 
+24.4  +17.2  64  +28  +30  душно  1014.9  978.6         
12:52 21.05 ЮВ  16 км    2/0 7500 м
[верхняя] 
+26.7  +17.2  56  +31  +36  душно  1015.1  979.0         
13:52 21.05 нст  16 км    2/2 1500 м
[верхняя] 
+27.8  +15.0  46  +30  +36  жарко  1015.1  979.0         
14:52 21.05 Ю  16 км    2/2 1500 м  +28.9  +16.7  48  +33  +39  очень
душно 
1014.9  978.6         
15:52 21.05   16 км    2/2 1650 м  +30.0  +16.7  45  +34  +53  опасность
солнечного
удара 
1014.4  978.3         
16:52 21.05 ЮЗ  5
{7} 
16 км    5/5 1800 м  +31.1  +16.7  42  +34  +38  душно  1014.1  978.0  +22.2  +31.1     
17:52 21.05 ЮЗ  16 км    5/5 1950 м  +30.6  +15.6  40  +33  +37  душно  1013.5  977.3         
18:52 21.05 ЮЗ  16 км    5/5 1950 м  +31.1  +16.7  42  +34  +42  душно  1013.3  977.3         
19:52 21.05 Ю  16 км    5/5 1950 м  +31.1  +16.1  40  +34  +39  душно  1012.9  977.0         
20:52 21.05 З  16 км    5/5 1950 м  +31.1  +15.6  39  +34  +38  душно  1012.9  976.7         
21:52 21.05 ЮЗ  16 км    2/2 1950 м  +30.6  +16.1  42  +34  +37  очень
душно 
1012.8  976.7         
22:52 21.05 Ю  16 км    2/2 1950 м  +30.0  +16.1  43  +33  +35  душно  1012.8  976.7  +29.4  +31.7     
23:52 21.05 Ю  16 км    2/2 1950 м  +28.3  +17.2  51  +32  +33  душно  1013.2  977.0         
00:52 22.05 ЮВ  16 км    5/5 1950 м  +27.8  +17.2  52  +32  +32  душно  1013.6  977.3         
01:52 22.05 ЮЗ  16 км    8/5 1800 м
[средняя] 
+27.2  +17.8  56  +31  +31  душно  1014.0  978.0         
02:52 22.05 ЮВ  16 км    5/5 1950 м  +26.1  +17.8  60  +30  +30  душно  1014.4  978.3         
03:52 22.05 ЮВ  16 км    5/5 1950 м  +25.6  +17.8  62  +30  +30  душно  1014.8  978.6         
04:52 22.05   16 км    8/8 1950 м  +25.0  +17.8  64  +29  +29  душно  1014.9  979.0  +25.0  +30.0     
05:52 22.05 Ю  16 км    5/5 1800 м
[средняя] 
+24.4  +17.8  67  +29  +29  душно  1014.8  978.6         
06:52 22.05 ЮЗ  16 км    2/2 1800 м
[средняя] 
+23.9  +17.8  69  +28  +28  душно  1015.3  979.3         
07:52 22.05   16 км    2/2 1800 м
[средняя] 
+23.3  +17.2  69  +29  +29  душно  1016.3  980.0         
08:52 22.05   16 км    5/5 1800 м
[средняя] 
+23.3  +16.1  64  +28  +28  душно  1016.7  980.6         
09:52 22.05   16 км    5/5 1950 м
[средняя верхняя] 
+23.3  +16.1  64  +28  +28  душно  1017.1  980.9         
10:52 22.05   16 км    2/2 1950 м  +24.4  +16.1  60  +28  +28  душно  1017.7  981.6  +22.8  +25.6     
11:52 22.05 СЗ  16 км    5/2 1950 м
[средняя] 
+27.2  +15.0  47  +30  +31  душно  1017.9  981.9         
12:52 22.05 ЮЗ  16 км    2/2 1800 м
[средняя] 
+28.3  +12.8  38  +30  +34  жарко  1018.0  981.9         
13:52 22.05 ЮЗ  16 км    2/2 1800 м  +28.9  +15.0  43  +31  +37  жарко  1018.4  982.2         
14:52 22.05 ЮЗ  16 км    2/2 1800 м
[верхняя] 
+30.0  +15.6  42  +33  +39  душно  1018.6  982.2         
15:52 22.05 Ю  4
{7} 
16 км    2/2 1800 м  +31.1  +16.1  40  +34  +41  душно  1018.7  982.6         
16:52 22.05 ЮЗ  16 км    2/2 1950 м  +31.7  +16.1  39  +35  +45  очень
душно 
1018.7  982.6  +24.4  +31.7     
17:52 22.05 Ю  16 км    2/0 2100 м
[средняя] 
+32.2  +15.6  37  +35  +45  очень
душно 
1018.6  982.6         
18:52 22.05 Ю  16 км    5/0 2100 м
[средняя] 
+32.8  +16.1  37  +36  +45  очень
душно 
1018.5  982.2         
19:52 22.05 Ю  16 км    2/0 2100 м
[средняя верхняя] 
+32.2  +15.0  35  +34  +42  душно  1018.4  982.2         
20:52 22.05 Ю  16 км    2/0 2100 м
[средняя верхняя] 
+32.2  +16.1  38  +35  +41  очень
душно 
1018.3  982.2         
21:52 22.05 ЮЗ  16 км    2/0 2100 м
[средняя верхняя] 
+31.1  +16.1  40  +34  +38  душно  1018.6  982.2         
22:52 22.05 ЮЗ  16 км    2/0 2100 м
[средняя] 
+30.6  +16.1  42  +34  +35  очень
душно 
1018.7  982.6  +30.6  +32.8     
23:52 22.05 ЮЗ  16 км    2/0 2100 м
[средняя] 
+28.9  +16.7  48  +33  +33  очень
душно 
1019.1  982.9         
00:52 23.05 З  16 км    2/0 2100 м
[средняя] 
+28.3  +16.7  49  +32  +32  душно  1019.7  983.5         
01:52 23.05   16 км    2/0 2100 м
[средняя] 
+27.8  +17.2  52  +32  +32  душно  1020.5  984.2         

 

Местоположение метеостанции Hartsfield-Jackson Atlanta International Airport: широта 33.6403 долгота -84.4269 высота над уровнем моря 313 м.

В архиве по умолчанию представлена погода в Атланте за последние 1-2 суток. Обновление информации о фактической погоде в базе происходит ежечасно! Архивные данные за месяц целиком и за предыдущие месяцы Вы можете получить, выбрав интересующий диапазон дат из раскрывающегося списка и нажав кнопку "Ввод!".

Внимание! Архив погоды МЕТАР в базе сайта в настоящее время начинается c 1 января 2011 г. Нет смысла пытаться выбрать более раннюю дату.

Внимание! Время в таблицах - всемирное. Для получения местного времени необходимо прибавить поправку, которая в Атланте равна -5 ч.

Ветер - указаны скорость ветра в м/с и направление, откуда дует ветер: С - северный, СВ - северо-восточный, В - восточный, ЮВ - юго-восточный, Ю - южный, ЮЗ - юго-западный, З - западный, СЗ - северо-западный.
Видимость - горизонтальная дальность видимости в метрах или километрах. При видимости от 1 до 10 км при отсутствии осадков обычно наблюдается дымка, при ухудшении видимости до 1 км и менее - туман. В сухую погоду видимость может ухудшаться дымом, пылью или мглою.
Атмосферные явления - указаны явления, наблюдавшиеся в указанный момент времени.
Облачность - указаны через наклонную черту верхняя и нижняя облачность в баллах и высота нижней границы облаков в метрах. Внимание: облачность, как и прочие метеорологические величины в США измеряются автоматическими метеостанциями. Указанные значения в баллах носят условный характер и показывают процент времени, в течение которого, в среднем, лазерный луч высотомера отражался от облаков обратно.
T - Температура воздуха - температура, измеренная на высоте 2 м над землей.
Td - Температура точки росы - температура, при понижении до которой содержащийся в воздухе водяной пар достигнет насыщения.
f - Относительная влажность воздуха - влажноcть воздуха, измеренная на высоте 2 м над землей.
Te - Эффективная температура - температура, которую ощущает одетый по сезону человек в тени. Характеристика душности погоды. При расчете учитывается влияние влажности воздуха и скорости ветра на теплоощущения человека.
Tes - Эффективная температура на солнце - температура, которую ощущает человек, с поправкой на солнечный нагрев. Характеристика знойности погоды. Зависит от высоты солнца над горизонтом, облачности и скорости ветра. Ночью, в пасмурную погоду, а также при ветре 12 м/с и более поправка равна нулю.
P - Атмосферное давление - приведенное к уровню моря атмосферное давление.
Po - Атмосферное давление - измеренное на уровне метеостанции атмосферное давление.
Tmin - Минимальная температура - минимум температуры воздуха на высоте 2 м над землей.
Tmax - Максимальная температура - максимум температуры воздуха на высоте 2 м над землей.
R - Количество осадков - Количество выпавших осадков за 3 или 6 часов, мм.
SD - Снежный покров - Высота снежного покрова, см.